| time (UTC) | temp F | wind direction | speed MPH | gust MPH | rain 1hr in | rain 24hr in | rain mn in | humidity % | barometer mb |
| 20260503213100 | 55 | 206 | 6.0 | 9.0 | 0.04 | 0.04 | 0.04 | 77 | 1007.9 |
| 20260503211617 | 54 | 155 | 2.0 | 5.0 | 0.04 | 0.04 | 0.04 | 77 | 1008.0 |
| 20260503210053 | 54 | 155 | 2.0 | 8.0 | 0.04 | 0.04 | 0.04 | 74 | 1008.5 |
| 20260503204549 | 59 | 5 | 7.0 | 16.0 | 0.03 | 0.03 | 0.03 | 57 | 1008.9 |
| 20260503203105 | 62 | 198 | 5.0 | 7.0 | 0.00 | 0.00 | 0.00 | 47 | 1008.1 |
| 20260503201548 | 63 | 180 | 3.0 | 10.0 | 0.00 | 0.00 | 0.00 | 45 | 1007.7 |
| 20260503200045 | 64 | 176 | 9.0 | 13.0 | 0.00 | 0.00 | 0.00 | 45 | 1007.9 |
| 20260503194550 | 63 | 193 | 6.0 | 10.0 | 0.00 | 0.00 | 0.00 | 45 | 1008.2 |
| 20260503193041 | 63 | 250 | 3.0 | 5.0 | 0.00 | 0.00 | 0.00 | 46 | 1008.3 |
| 20260503191541 | 62 | 355 | 3.0 | 9.0 | 0.00 | 0.00 | 0.00 | 47 | 1008.5 |
| 20260503190040 | 62 | 17 | 9.0 | 14.0 | 0.00 | 0.00 | 0.00 | 45 | 1008.8 |
| 20260503184536 | 61 | 350 | 9.0 | 18.0 | 0.00 | 0.00 | 0.00 | 50 | 1008.8 |
| 20260503183033 | 63 | 340 | 9.0 | 20.0 | 0.00 | 0.00 | 0.00 | 45 | 1009.4 |
| 20260503181532 | 64 | 36 | 3.0 | 11.0 | 0.00 | 0.00 | 0.00 | 41 | 1009.2 |
| 20260503180032 | 65 | 40 | 8.0 | 15.0 | 0.00 | 0.00 | 0.00 | 38 | 1009.4 |
| 20260503174529 | 65 | 344 | 11.0 | 18.0 | 0.00 | 0.00 | 0.00 | 39 | 1009.5 |
| 20260503173042 | 64 | 30 | 4.0 | 15.0 | 0.00 | 0.00 | 0.00 | 41 | 1009.8 |
| 20260503171535 | 63 | 24 | 13.0 | 17.0 | 0.00 | 0.00 | 0.00 | 39 | 1010.0 |
| 20260503081502 | 49 | 182 | 1.0 | 4.0 | 0.00 | 0.00 | 0.00 | 59 | 1012.4 |
| 20260503071601 | 50 | 177 | 0.0 | 4.0 | 0.00 | 0.00 | 0.00 | 56 | 1011.7 |
| 20260503054543 | 51 | 174 | 2.0 | 4.0 | 0.00 | 0.00 | 0.00 | 55 | 1011.8 |
| 20260503053044 | 50 | 173 | 1.0 | 3.0 | 0.00 | 0.00 | 0.00 | 56 | 1011.7 |
| 20260503051541 | 50 | 173 | 2.0 | 4.0 | 0.00 | 0.00 | 0.00 | 56 | 1011.7 |
| 20260503050041 | 51 | 172 | 1.0 | 5.0 | 0.00 | 0.00 | 0.00 | 54 | 1011.6 |
| 20260503044539 | 51 | 170 | 4.0 | 5.0 | 0.00 | 0.00 | 0.00 | 55 | 1011.6 |
| 20260503043038 | 52 | 168 | 3.0 | 6.0 | 0.00 | 0.00 | 0.00 | 52 | 1011.7 |
| 20260503041538 | 53 | 30 | 0.0 | 2.0 | 0.00 | 0.00 | 0.00 | 50 | 1011.7 |
| 20260503040038 | 54 | 24 | 1.0 | 3.0 | 0.00 | 0.00 | 0.00 | 50 | 1011.6 |
| 20260503034536 | 55 | 24 | 0.0 | 3.0 | 0.00 | 0.00 | 0.00 | 47 | 1011.6 |
| 20260503033052 | 56 | 19 | 0.0 | 4.0 | 0.00 | 0.00 | 0.00 | 46 | 1011.5 |
| 20260503031537 | 56 | 5 | 1.0 | 2.0 | 0.00 | 0.00 | 0.00 | 46 | 1011.5 |
| 20260503030034 | 56 | 5 | 1.0 | 3.0 | 0.00 | 0.00 | 0.00 | 46 | 1011.4 |
| 20260503024534 | 58 | 5 | 0.0 | 4.0 | 0.00 | 0.00 | 0.00 | 42 | 1011.3 |
| 20260503023044 | 59 | 5 | 2.0 | 5.0 | 0.00 | 0.00 | 0.00 | 41 | 1011.0 |
| 20260503021533 | 60 | 5 | 4.0 | 9.0 | 0.00 | 0.00 | 0.00 | 40 | 1010.8 |
| 20260503020033 | 61 | 10 | 6.0 | 9.0 | 0.00 | 0.00 | 0.00 | 39 | 1010.7 |
| 20260503014531 | 62 | 355 | 5.0 | 12.0 | 0.00 | 0.00 | 0.00 | 37 | 1010.7 |
| 20260503013031 | 64 | 349 | 10.0 | 19.0 | 0.00 | 0.00 | 0.00 | 35 | 1010.5 |
| 20260503011531 | 65 | 351 | 8.0 | 18.0 | 0.00 | 0.00 | 0.00 | 34 | 1010.3 |
| 20260503010033 | 66 | 342 | 13.0 | 23.0 | 0.00 | 0.00 | 0.00 | 30 | 1010.0 |
| 20260503004528 | 67 | 327 | 16.0 | 29.0 | 0.00 | 0.00 | 0.00 | 29 | 1009.9 |
| 20260503003029 | 68 | 351 | 18.0 | 27.0 | 0.00 | 0.00 | 0.00 | 29 | 1009.8 |
| 20260503001528 | 69 | 323 | 17.0 | 27.0 | 0.00 | 0.00 | 0.00 | 27 | 1009.9 |
| 20260503000126 | 69 | 344 | 20.0 | 32.0 | 0.00 | 0.00 | 0.00 | 28 | 1009.8 |
| 20260502234524 | 69 | 340 | 18.0 | 30.0 | 0.00 | 0.00 | 0.00 | 27 | 1009.6 |
| 20260502233023 | 71 | 346 | 21.0 | 32.0 | 0.00 | 0.00 | 0.00 | 26 | 1009.3 |
| 20260502231524 | 72 | 355 | 19.0 | 28.0 | 0.00 | 0.00 | 0.00 | 25 | 1009.3 |
| 20260502230022 | 73 | 336 | 14.0 | 28.0 | 0.00 | 0.00 | 0.00 | 24 | 1009.2 |
| 20260502224521 | 73 | 336 | 12.0 | 25.0 | 0.00 | 0.00 | 0.00 | 23 | 1009.2 |
| 20260502223018 | 74 | 342 | 17.0 | 29.0 | 0.00 | 0.00 | 0.00 | 21 | 1009.1 |
| 20260502221517 | 74 | 5 | 16.0 | 28.0 | 0.00 | 0.00 | 0.00 | 20 | 1009.1 |
| 20260502220015 | 75 | 342 | 16.0 | 24.0 | 0.00 | 0.00 | 0.00 | 18 | 1009.2 |
| 20260502214514 | 77 | 334 | 19.0 | 27.0 | 0.00 | 0.00 | 0.00 | 17 | 1009.4 |